Weather History for Moline, IL

Change the Weather History Date:

Saturday, March 16, 2013

  Actual Average Record
Temperature  
Mean Temperature 35 °F 39 °F  
Max Temperature 39 °F 49 °F 82 °F (1945)
Min Temperature 30 °F 30 °F 0 °F (1900)
Degree Days  
Heating Degree Days 30 26  
Month to date heating degree days 563 468  
Since 1 July heating degree days 5196 5266  
Cooling Degree Days 0 0  
Month to date cooling degree days 0 0  
Year to date cooling degree days 0 0  
Moisture  
Dew Point 29 °F    
Average Humidity 80    
Maximum Humidity 100    
Minimum Humidity 59    
Precipitation  
Precipitation 0.00 in 0.09 in 1.21 in (1919)
Month to date precipitation 2.22 1.42  
Year to date precipitation 7.62 4.51  
Snow  
Snow 0.00 in 0.10 in - ()
Month to date snowfall 5.7 2.5  
Since 1 July snowfall 29.6 29.2  
Snow Depth 0.00 in    
Sea Level Pressure  
Sea Level Pressure 29.95 in    
Wind  
Wind Speed 8 mph (North)    
Max Wind Speed 14 mph    
Max Gust Speed 20 mph    
Visibility 6 miles    
Events      
T = Trace of Precipitation, MM = Missing Value Source: NWS Daily Summary

Daily Weather History Graph

Daily Weather History Graph

Search for Another Location

Airport:

Trip Planner

Search our weather history database for the weather conditions in past years. The results will help you decide how hot, cold, wet, or windy it might be!

Date:

Astronomy

Mar. 16, 2013 Rise Set
Actual Time 7:11 AM CDT 7:10 PM CDT
Civil Twilight 6:44 AM CDT 7:37 PM CDT
Nautical Twilight 6:11 AM CDT 8:09 PM CDT
Astronomical Twilight 5:39 AM CDT 8:42 PM CDT
Moon 9:37 AM CDT No Moon Set
Length of Visible Light 12h 53m
Length of Day
11h 58m
Waxing Crescent, 23% of the Moon is Illuminated
Mar 16
Waxing Crescent
Mar 19
First Quarter
Mar 27
Full
Apr 2
Last Quarter
Apr 10
New

Hourly Weather History & Observations

Time (CDT) Temp. Windchill Dew Point Humidity Pressure Visibility Wind Dir Wind Speed Gust Speed Precip Events Conditions
12:52 AM 36.0 °F 27.5 °F 34.0 °F 93% 29.72 in 2.0 mi ENE 12.7 mph - N/A   Overcast
1:02 AM 35.6 °F 28.0 °F 33.8 °F 93% 29.72 in 1.8 mi ENE 10.4 mph - N/A   Overcast
1:28 AM 35.6 °F 29.2 °F 33.8 °F 93% 29.74 in 2.0 mi NNE 8.1 mph - N/A   Overcast
1:43 AM 35.6 °F 29.2 °F 33.8 °F 93% 29.73 in 1.8 mi NE 8.1 mph - N/A   Overcast
1:52 AM 35.1 °F 29.3 °F 34.0 °F 96% 29.75 in 1.8 mi NE 6.9 mph - N/A   Overcast
2:52 AM 35.1 °F 27.4 °F 33.1 °F 92% 29.77 in 2.0 mi NNE 10.4 mph - N/A   Overcast
3:52 AM 34.0 °F 26.6 °F 33.1 °F 96% 29.78 in 1.8 mi North 9.2 mph - N/A   Overcast
4:52 AM 33.1 °F 26.1 °F 32.0 °F 96% 29.78 in 1.8 mi North 8.1 mph - N/A   Overcast
5:23 AM 33.8 °F 28.6 °F 32.0 °F 93% 29.77 in 2.0 mi NNE 5.8 mph - N/A   Overcast
5:52 AM 33.1 °F 28.7 °F 32.0 °F 96% 29.81 in 3.0 mi North 4.6 mph - N/A   Overcast
6:30 AM 33.8 °F 28.6 °F 30.2 °F 87% 29.82 in 4.0 mi North 5.8 mph - N/A   Overcast
6:52 AM 33.1 °F 25.5 °F 30.9 °F 92% 29.86 in 5.0 mi North 9.2 mph - N/A   Overcast
7:32 AM 33.8 °F 26.4 °F 30.2 °F 87% 29.87 in 2.5 mi North 9.2 mph - N/A   Overcast
7:52 AM 33.1 °F 28.7 °F 30.9 °F 92% 29.90 in 2.5 mi North 4.6 mph - N/A   Overcast
8:50 AM 33.8 °F 27.7 °F 30.2 °F 87% 29.93 in 5.0 mi North 6.9 mph - N/A   Overcast
8:52 AM 33.1 °F 26.1 °F 30.0 °F 89% 29.94 in 3.0 mi North 8.1 mph - N/A   Overcast
9:12 AM 33.8 °F 27.7 °F 30.2 °F 87% 29.93 in 3.0 mi North 6.9 mph - N/A   Overcast
9:52 AM 34.0 °F 27.2 °F 30.0 °F 85% 29.96 in 5.0 mi NNW 8.1 mph - N/A   Overcast
10:52 AM 35.1 °F 28.6 °F 30.0 °F 82% 29.99 in 7.0 mi North 8.1 mph - N/A   Overcast
11:52 AM 35.1 °F 27.9 °F 30.0 °F 82% 30.02 in 5.0 mi North 9.2 mph - N/A   Haze
12:33 PM 35.6 °F 28.6 °F 28.4 °F 75% 30.01 in 7.0 mi NNE 9.2 mph - N/A   Overcast
12:52 PM 35.1 °F 28.6 °F 28.9 °F 78% 30.04 in 6.0 mi North 8.1 mph - N/A   Haze
1:52 PM 37.9 °F 30.5 °F 27.0 °F 65% 30.03 in 10.0 mi NNE 11.5 mph - N/A   Overcast
2:10 PM 37.4 °F 30.3 °F 26.6 °F 65% 30.02 in 10.0 mi North 10.4 mph - N/A   Overcast
2:52 PM 37.9 °F 30.9 °F 27.0 °F 65% 30.04 in 10.0 mi North 10.4 mph - N/A   Overcast
3:14 PM 37.4 °F 30.3 °F 26.6 °F 65% 30.02 in 10.0 mi North 10.4 mph - N/A   Overcast
3:23 PM 37.4 °F 30.8 °F 26.6 °F 65% 30.02 in 10.0 mi NNW 9.2 mph - N/A   Overcast
3:52 PM 37.9 °F 31.5 °F 25.0 °F 60% 30.04 in 10.0 mi North 9.2 mph - N/A   Overcast
4:52 PM 37.0 °F 31.0 °F 25.0 °F 62% 30.05 in 10.0 mi NNE 8.1 mph - N/A   Overcast
5:52 PM 36.0 °F 30.3 °F 24.1 °F 62% 30.06 in 10.0 mi North 6.9 mph - N/A   Overcast
6:52 PM 35.1 °F 30.1 °F 24.1 °F 64% 30.08 in 10.0 mi NNE 5.8 mph - N/A   Overcast
7:52 PM 35.1 °F 29.3 °F 23.0 °F 61% 30.10 in 10.0 mi North 6.9 mph - N/A   Overcast
8:52 PM 34.0 °F 29.8 °F 24.1 °F 67% 30.12 in 10.0 mi North 4.6 mph - N/A   Overcast
9:52 PM 34.0 °F 28.0 °F 23.0 °F 64% 30.13 in 10.0 mi NNW 6.9 mph - N/A   Overcast
10:52 PM 33.1 °F 25.5 °F 25.0 °F 72% 30.14 in 10.0 mi North 9.2 mph - N/A   Overcast
11:04 PM 33.8 °F 27.0 °F 24.8 °F 70% 30.13 in 10.0 mi NNW 8.1 mph - N/A   Overcast
11:31 PM 32.0 °F 23.0 °F 24.8 °F 75% 30.14 in 10.0 mi NNW 11.5 mph - N/A   Overcast
11:52 PM 32.0 °F 24.8 °F 23.0 °F 69% 30.16 in 10.0 mi NNW 8.1 mph - N/A   Overcast